Flag for Malaysia Weather past 2 weeks in Kuala Lumpur, Malaysia

Now
84 °F

Thunderstorms. Broken clouds.


Feels Like: 92 °F
Forecast: 78 / 92 °F
Wind: 7 mph from East

Location: Sultan Abdul Aziz Shah-Subang

Current Time: May 29, 2015 at 6:30:55 PM

Latest Report: May 29, 2015 at 6:00 PM


Visibility: 6 mi

Pressure: 29.77 "Hg

Humidity: 74%

Dew point: 75 °F

Location of Kuala LumpurLocation

Historic Weather in Kuala Lumpur — Graph

°F

Kuala Lumpur temperature yesterday

Maximum temperature yesterday: 91 °F (at 2:00 PM)
Minimum temperature yesterday: 77 °F (at 7:00 AM)
Average temperature yesterday: 84 °F

Past Weeks' High & Low Weather Summary

 TemperatureHumidityPressure
High95 °F (May 27, 3:00 PM)100% (May 26, 3:00 AM)29.92 "Hg (May 26, 3:00 AM)
Low73 °F (May 26, 3:00 AM)53% (May 22, 4:00 PM)29.74 "Hg (May 16, 6:00 PM)
Average83 °F80%29.84 "Hg
* Reported May 14 5:00 PM — May 29 5:00 PM, Kuala Lumpur, Weather by CustomWeather, © 2015

Note: Actual official high and low records may vary slightly from our data, if they occured in-between our weather recording intervals... More about our weather records

Advertising

Kuala Lumpur weather history for previous 24 hours

 ConditionsComfort  
Time TempWeatherWind HumidityBarometerVisibility
5:00 PM
Fri, May 29
90 °FThunderstorms. Broken clouds.14 mph67%29.74 "HgN/A
4:00 PM93 °FPartly sunny.9 mph63%29.74 "HgN/A
3:00 PM93 °FBroken clouds.7 mph56%29.77 "HgN/A
2:00 PM93 °FBroken clouds.6 mph59%29.80 "HgN/A
1:00 PM91 °FBroken clouds.7 mph59%29.83 "HgN/A
12:00 PM91 °FBroken clouds.9 mph63%29.86 "HgN/A
11:00 AM90 °FBroken clouds.9 mph67%29.86 "HgN/A
10:00 AM88 °FBroken clouds.8 mph66%29.86 "HgN/A
9:00 AM86 °FPartly sunny.5 mph70%29.86 "HgN/A
8:00 AM81 °FPartly cloudy.No wind89%29.83 "Hg4 mi
7:00 AM79 °FPassing clouds.1 mph94%29.83 "Hg4 mi
6:00 AM79 °FPartly cloudy.1 mph89%29.80 "Hg4 mi
5:00 AM81 °FPartly cloudy.No wind89%29.80 "Hg5 mi
4:00 AM81 °FPartly cloudy.1 mph84%29.80 "Hg5 mi
3:00 AM81 °FPartly cloudy.2 mph84%29.80 "Hg5 mi
2:00 AM81 °FPartly cloudy.2 mph84%29.83 "Hg5 mi
1:00 AM81 °FPartly cloudy.3 mph84%29.86 "Hg5 mi
12:00 AM81 °FPartly cloudy.2 mph84%29.86 "Hg5 mi
11:00 PM
Thu, May 28
81 °FPartly cloudy.6 mph84%29.86 "Hg5 mi
10:00 PM82 °FPartly cloudy.3 mph84%29.83 "Hg6 mi
9:00 PM84 °FPartly cloudy.6 mph79%29.83 "Hg6 mi
8:00 PM86 °FBroken clouds.2 mph66%29.80 "Hg6 mi
7:00 PM86 °FBroken clouds.6 mph66%29.77 "HgN/A
6:00 PM88 °FPartly sunny.7 mph66%29.74 "HgN/A
Weather by CustomWeather, © 2015

See weather overviewHow to use our weather pages